This is the latest recevied weather packets stored in our database for station/object SP6FIG. If no packets are shown the sender has not sent any weather packets the latest 10 day(s).
| Time | Temp. | Humidity | Pressure | Rain* | Wind** | Luminosity | Snow |
|---|---|---|---|---|---|---|---|
| 1777965630 | 22.78° C | 36% | 960.9 hPa | - | - | - | - |
| 1777965029 | 23.33° C | 36% | 960.9 hPa | - | - | - | - |
| 1777964429 | 23.89° C | 36% | 961 hPa | - | - | - | - |
| 1777963830 | 23.89° C | 36% | 960.9 hPa | - | - | - | - |
| 1777963229 | 23.89° C | 36% | 960.9 hPa | - | - | - | - |
| 1777962629 | 23.89° C | 36% | 960.9 hPa | - | - | - | - |
| 1777962030 | 23.89° C | 35% | 961 hPa | - | - | - | - |
| 1777961429 | 23.89° C | 35% | 961.1 hPa | - | - | - | - |
| 1777960829 | 23.89° C | 35% | 961.1 hPa | - | - | - | - |
| 1777960229 | 23.33° C | 35% | 961 hPa | - | - | - | - |
| 1777959629 | 25° C | 34% | 961.1 hPa | - | - | - | - |
| 1777959029 | 24.44° C | 36% | 960.6 hPa | - | - | - | - |
| 1777958429 | 25° C | 35% | 961.2 hPa | - | - | - | - |
| 1777957829 | 25° C | 35% | 961.2 hPa | - | - | - | - |
| 1777956629 | 24.44° C | 37% | 961 hPa | - | - | - | - |
| 1777956029 | 23.89° C | 38% | 961.2 hPa | - | - | - | - |
| 1777955429 | 23.89° C | 38% | 961.2 hPa | - | - | - | - |
| 1777954829 | 23.89° C | 38% | 961.3 hPa | - | - | - | - |
| 1777954229 | 23.89° C | 38% | 961.6 hPa | - | - | - | - |
| 1777953629 | 23.89° C | 38% | 961.6 hPa | - | - | - | - |
| 1777943429 | 24.44° C | 38% | 962.9 hPa | - | - | - | - |
| 1777940429 | 24.44° C | 37% | 963.3 hPa | - | - | - | - |
| 1777926632 | 24.44° C | 36% | 964.4 hPa | - | - | - | - |
| 1777918230 | 24.44° C | 35% | 963.9 hPa | - | - | - | - |
| 1777911631 | 24.44° C | 31% | 963.6 hPa | - | - | - | - |
* Rain since midnight (hover to see other rain measurements)
** Current wind speed in m/s (hover to see current wind gust speed)